TimePST,TemperatureF,Dew PointF,Humidity,Sea Level PressureIn,VisibilityMPH,Wind Direction,Wind SpeedMPH,Gust SpeedMPH,PrecipitationIn,Events,Conditions,WindDirDegrees,DateUTC
12:58 AM,64.8,47.8,54,29.62,10.0,SSW,12.7,-,N/A,,Overcast,200,2012-11-09 08:58:00
1:58 AM,62.8,47.5,57,29.63,10.0,SSW,11.5,-,N/A,,Mostly Cloudy,200,2012-11-09 09:58:00
2:58 AM,62.4,46.8,57,29.61,10.0,SW,18.4,-,N/A,,Overcast,220,2012-11-09 10:58:00
3:58 AM,60.3,45.3,58,29.63,10.0,SSW,12.7,-,N/A,,Mostly Cloudy,200,2012-11-09 11:58:00
4:58 AM,60.1,45.1,58,29.62,10.0,SSE,5.8,-,N/A,,Scattered Clouds,150,2012-11-09 12:58:00
5:58 AM,59.5,43.5,55,29.61,10.0,SSW,20.7,-,N/A,,Overcast,210,2012-11-09 13:58:00
6:58 AM,59.4,43.2,55,29.63,10.0,SSW,20.7,-,N/A,,Mostly Cloudy,200,2012-11-09 14:58:00
7:58 AM,59.2,39.9,49,29.65,10.0,SSW,23.0,32.2,N/A,,Mostly Cloudy,210,2012-11-09 15:58:00
8:58 AM,59.5,36.1,42,29.65,10.0,SW,23.0,27.6,N/A,,Overcast,220,2012-11-09 16:58:00
9:58 AM,60.4,32.9,36,29.66,10.0,WSW,24.2,-,N/A,,Partly Cloudy,240,2012-11-09 17:58:00
10:58 AM,61.3,29.1,30,29.68,10.0,South,23.0,32.2,N/A,,Mostly Cloudy,190,2012-11-09 18:58:00
11:23 AM,60.8,24.8,25,29.70,2.0,SW,23.0,43.7,N/A,,Haze,220,2012-11-09 19:23:00
11:28 AM,60.8,24.8,25,29.69,2.5,SSW,28.8,42.6,N/A,,Haze,210,2012-11-09 19:28:00
11:33 AM,60.8,24.8,25,29.69,6.0,SSW,25.3,35.7,N/A,,Haze,200,2012-11-09 19:33:00
11:58 AM,60.6,26.1,27,29.65,10.0,South,20.7,33.4,N/A,,Clear,180,2012-11-09 19:58:00
12:58 PM,61.7,23.2,23,29.62,10.0,SSW,21.9,-,N/A,,Clear,210,2012-11-09 20:58:00
1:58 PM,61.9,19.6,20,29.63,10.0,SSW,21.9,-,N/A,,Clear,200,2012-11-09 21:58:00
2:46 PM,60.8,15.8,17,29.66,7.0,WSW,18.4,26.5,N/A,,Clear,250,2012-11-09 22:46:00
2:58 PM,61.5,14.4,16,29.63,10.0,SW,19.6,29.9,N/A,,Clear,220,2012-11-09 22:58:00
3:58 PM,59.5,17.2,19,29.63,10.0,SSW,19.6,-,N/A,,Clear,200,2012-11-09 23:58:00
4:38 PM,59.0,12.2,16,29.67,10.0,WSW,16.1,21.9,N/A,,Clear,250,2012-11-10 00:38:00
4:58 PM,57.9,10.6,15,29.65,10.0,WSW,15.0,-,N/A,,Clear,240,2012-11-10 00:58:00
5:58 PM,55.8,15.6,21,29.67,10.0,WSW,16.1,-,N/A,,Clear,240,2012-11-10 01:58:00
6:58 PM,54.3,14.4,21,29.70,10.0,WSW,9.2,-,N/A,,Clear,240,2012-11-10 02:58:00
7:58 PM,52.9,17.2,25,29.72,10.0,WSW,16.1,19.6,N/A,,Clear,250,2012-11-10 03:58:00
8:54 PM,51.8,21.2,30,29.75,10.0,West,19.6,26.5,N/A,,Partly Cloudy,270,2012-11-10 04:54:00
8:58 PM,51.4,20.7,30,29.74,10.0,West,15.0,26.5,N/A,,Partly Cloudy,280,2012-11-10 04:58:00
9:58 PM,47.8,29.8,50,29.74,10.0,WNW,25.3,33.4,N/A,,Clear,290,2012-11-10 05:58:00
10:58 PM,43.7,33.3,67,29.78,10.0,WNW,26.5,43.7,N/A,,Clear,290,2012-11-10 06:58:00
11:58 PM,45.0,30.9,58,29.78,10.0,West,9.2,-,N/A,,Overcast,270,2012-11-10 07:58:00